Miscellaneous Local Product
Issued by NWS North Platte, NE

Home | Current Version | Previous Version | Text Only | Print | Product List | Glossary On
Versions: 1 2 3 4 5 6 7 8 9 10 11 12 13 14 15 16 17 18 19 20 21 22 23 24 25 26 27 28 29 30 31 32 33 34 35 36 37 38 39 40 41 42 43 44 45 46 47 48 49 50
000
AXUS43 KLBF 261010
MISLBF


WESTERN AND NORTH CENTRAL NEBRASKA HOURLY WEATHER ROUNDUP
NATIONAL WEATHER SERVICE NORTH PLATTE NE
500 AM CDT MON SEP 26 2016

NOTE: "FAIR" INDICATES FEW OR NO CLOUDS BELOW 12,000 FEET WITH NO
SIGNIFICANT WEATHER AND/OR OBSTRUCTIONS TO VISIBILITY.

NOTE: STATIONS NOT REPORTING VARIABLES SUCH AS SKY/WEATHER OR
PRESSURE ARE PROVIDED BY RAWS AND APRS NETWORKS AND ARE NOT UNDER
NATIONAL WEATHER SERVICE QUALITY CONTROL.

...OBSERVATIONS IN AND NEAR THE EASTERN PANHANDLE OF NEBRASKA...

CITY           SKY/WX    TMP DP  RH WIND       PRES   REMARKS
PINE RIDGE     CLEAR     31  27  85 CALM      30.31F
CHADRON        CLEAR     40  33  76 SW5       30.32F
ALLIANCE       CLEAR     32  30  92 CALM      30.35F
SIDNEY         FLURRIES  36  33  89 W9        30.39F WCI  29
CRESCENT LAKE    N/A     41  34  77 CALM        N/A
$$

...OBSERVATIONS IN NORTHERN NEBRASKA AND FAR SOUTHERN SOUTH DAKOTA...

CITY           SKY/WX    TMP DP  RH WIND       PRES   REMARKS
WINNER         FAIR      48  35  60 W8        30.24F
VALENTINE      CLEAR     40  31  70 W8        30.29F WCI  34
THEDFORD       CLEAR     39  33  80 W6        30.33S WCI  34
AINSWORTH      CLEAR     42  36  78 W7        30.29S
O`NEILL        CLEAR     43  33  67 W7        30.25F
ORD            LGT RAIN  36  31  82 N5        30.29S WCI  32
BROKEN BOW     CLEAR     35  31  85 SW3       30.32S
VALENTINE NWR    N/A     41  32  69 CALM        N/A
BUTTE            N/A     44  35  70 CALM        N/A
HALSEY           N/A     40  30  67 SW3         N/A
EWING            N/A     42  36  80 W3          N/A
$$

...OBSERVATIONS IN SOUTHWEST NEBRASKA AND FAR NORTHEAST COLORADO...

CITY           SKY/WX    TMP DP  RH WIND       PRES   REMARKS
HOLYOKE        FAIR      37  34  87 W5        30.38F WCI  34
IMPERIAL       CLEAR     38  33  82 W3        30.37F
OGALLALA       CLEAR     36  33  90 W5        30.38R WCI  32
NORTH PLATTE   CLEAR     36  30  79 W3        30.36F
MCCOOK         CLEAR     37  33  85 SW5       30.36S WCI  33
LEXINGTON      CLEAR     37  32  84 NW8       30.34S WCI  30
STAPLETON        N/A     38  30  73 CALM        N/A
GOTHENBURG       N/A     39  29  68 NW5         N/A
CALLAWAY         N/A     40  34  79 W3          N/A
$$

...OBSERVATIONS IN CENTRAL LINCOLN COUNTY AREA...

CITY           SKY/WX    TMP DP  RH WIND       PRES   REMARKS
N.P. AIRPORT   CLEAR     36  30  79 W3        30.36F
N.P. DOWNTOWN    N/A     39  33  79 CALM        N/A
N.P. SOUTHEAST   N/A     40  33  77 CALM        N/A
N.P. HILLCREST   N/A     39  32  76 CALM        N/A
$$

...SOME OBSERVATIONS FROM AROUND THE REGION...

CITY           SKY/WX    TMP DP  RH WIND       PRES   REMARKS
DENVER         CLEAR     46  29  51 SW10      30.41F
LARAMIE        CLOUDY    34  29  82 S8        30.46F WCI  27
CHEYENNE       CLEAR     41  33  73 W8        30.42F
SCOTTSBLUFF    CLEAR     38  35  89 NW3       30.36F
RAPID CITY     CLEAR     45  34  65 W5        30.28S
BISMARCK       CLEAR     40  34  79 W7        30.16S
PIERRE         CLEAR     44  35  70 W12       30.20S
SIOUX FALLS    PTCLDY    45  36  70 W8        30.15S
OMAHA          CLEAR     49  39  68 NW3       30.22R
GRAND ISLAND   CLEAR     41  35  79 W8        30.30S
KANSAS CITY    CLEAR     52  46  80 NW8       30.24R
WICHITA        PTCLDY    52  46  80 N10       30.29R
OKLAHOMA CITY  PTCLDY    61  54  77 N12       30.22S
DALLAS         CLOUDY    68  60  75 N15       30.11R
AMARILLO       CLEAR     48  41  76 NW7       30.36F
DODGE CITY     CLEAR     41  33  73 NW6       30.36R
HAYS           CLEAR     43  28  56 NW7       30.34S
GOODLAND       CLEAR     42  34  73 SW8       30.38S
$$




USA.gov is the U.S. government's official web portal to all federal, state and local government web resources and services.